CQ0XVC-11 Weather Reports


time (UTC)temp
F
wind
direction
speed
knots
gust
knots
rain 1hr
in
rain 24hr
in
rain mn
in
humidity
%
barometer
mb
20260507052324 44 11 0.0 0.0 0.00 0.00 0.00 76 996.8
20260507051822 44 225 0.0 0.0 0.00 0.00 0.00 76 996.7
20260507051414 44 0 0.0 0.0 0.00 0.00 0.00 76 996.9
20260507051319 44 0 0.0 0.0 0.00 0.00 0.00 76 996.9
20260507050818 44 225 0.0 0.0 0.00 0.00 0.00 75 996.9
20260507050315 44 180 0.0 0.0 0.00 0.00 0.00 76 996.8
20260507045813 44 225 0.0 0.0 0.00 0.00 0.00 77 996.9
20260507044849 44 180 0.0 0.0 0.00 0.00 0.00 77 996.9
20260507044809 44 180 0.0 0.0 0.00 0.00 0.00 77 996.9
20260507044306 44 90 0.0 0.0 0.00 0.00 0.00 78 996.9
20260507043805 44 112 0.0 0.0 0.00 0.00 0.00 77 997.0
20260507043302 44 90 0.0 0.9 0.00 0.00 0.00 76 997.1
20260507042845 44 0 0.0 0.0 0.00 0.00 0.00 76 997.1
20260507042800 44 0 0.0 0.0 0.00 0.00 0.00 76 997.1
20260507042258 44 180 0.0 0.0 0.00 0.00 0.00 75 997.2
20260507041756 44 225 0.0 0.0 0.00 0.00 0.00 75 997.3
20260507041253 44 270 0.0 0.0 0.00 0.00 0.00 75 997.3
20260507040752 44 90 0.0 0.0 0.00 0.00 0.00 75 997.4
20260507040343 44 180 0.0 0.0 0.00 0.00 0.00 77 997.2
20260507040249 44 180 0.0 0.0 0.00 0.00 0.00 77 997.2
20260507035747 44 180 0.0 0.0 0.00 0.00 0.00 74 997.2
20260507035245 44 90 0.0 0.0 0.00 0.00 0.00 75 997.5
20260507034743 44 45 0.0 0.0 0.00 0.00 0.00 74 997.6
20260507034240 44 225 0.0 0.0 0.00 0.00 0.00 74 997.3
20260507033739 45 225 0.0 0.0 0.00 0.00 0.00 74 997.4
20260507033236 45 135 0.0 0.9 0.00 0.00 0.00 72 997.4
20260507032833 45 180 0.0 0.9 0.00 0.00 0.00 74 997.3
20260507032734 45 180 0.0 0.9 0.00 0.00 0.00 74 997.3
20260507032232 45 180 0.0 0.0 0.00 0.00 0.00 74 997.5
20260507031820 45 90 0.0 0.0 0.00 0.00 0.00 74 997.4
20260507031730 45 90 0.0 0.0 0.00 0.00 0.00 74 997.4
20260507031611 46 135 0.0 0.0 0.00 0.00 0.00 75 997.4
20260507031539 46 135 0.0 0.0 0.00 0.00 0.00 75 997.4
20260507031038 46 258 0.0 0.0 0.00 0.00 0.00 75 997.5
20260507030628 46 180 0.0 0.0 0.00 0.00 0.00 74 997.4
20260507030535 46 180 0.0 0.0 0.00 0.00 0.00 74 997.4
20260507030114 46 315 0.0 0.0 0.00 0.00 0.00 75 997.6
20260507030033 46 315 0.0 0.0 0.00 0.00 0.00 75 997.6
20260507025531 46 90 0.0 0.9 0.00 0.00 0.00 75 997.5
20260507025121 46 337 0.0 0.0 0.00 0.00 0.00 77 997.5
20260507025029 46 337 0.0 0.0 0.00 0.00 0.00 77 997.5
20260507024526 46 0 0.0 0.9 0.00 0.00 0.00 74 997.6
20260507024025 46 90 0.0 0.0 0.00 0.00 0.00 72 997.5
20260507023608 46 135 0.0 0.9 0.00 0.00 0.00 73 997.5
20260507023522 46 135 0.0 0.9 0.00 0.00 0.00 73 997.5
20260507023056 46 0 0.9 0.9 0.00 0.00 0.00 78 997.6
20260507023020 46 0 0.9 0.9 0.00 0.00 0.00 78 997.6
20260507022624 46 90 0.0 0.0 0.00 0.00 0.00 73 997.5
20260507022159 46 180 0.0 0.0 0.00 0.00 0.00 74 997.7
20260507022122 46 180 0.0 0.0 0.00 0.00 0.00 74 997.7
20260507021619 46 90 0.0 0.0 0.00 0.00 0.00 72 997.6
20260507021153 46 270 0.0 0.9 0.00 0.00 0.00 71 997.6
20260507021118 46 270 0.0 0.9 0.00 0.00 0.00 71 997.6
20260507020615 46 157 0.0 0.9 0.00 0.00 0.00 71 997.8
20260507020149 46 90 0.0 0.0 0.00 0.00 0.00 71 997.7
20260507020113 46 90 0.0 0.0 0.00 0.00 0.00 71 997.7
20260507015109 46 180 0.0 0.9 0.00 0.00 0.00 75 997.7
20260507014606 46 270 0.0 0.0 0.00 0.00 0.00 70 997.9
20260507014150 46 0 0.0 0.0 0.00 0.00 0.00 70 998.1
20260507014104 46 0 0.0 0.0 0.00 0.00 0.00 70 998.1
20260507013602 47 270 0.0 0.0 0.00 0.00 0.00 70 997.8
20260507013142 47 135 0.0 0.9 0.00 0.00 0.00 70 997.9
20260507013100 47 135 0.0 0.9 0.00 0.00 0.00 70 997.9
20260507012557 47 225 0.0 0.0 0.00 0.00 0.00 68 997.9
20260507012056 47 225 0.0 0.0 0.00 0.00 0.00 70 997.8
20260507011553 47 225 0.0 0.0 0.00 0.00 0.00 69 998.0
20260507011051 47 135 0.0 0.0 0.00 0.00 0.00 69 998.1
20260507010549 47 180 0.0 0.0 0.00 0.00 0.00 69 998.1
20260507010047 47 135 0.0 0.0 0.00 0.00 0.00 70 998.1
20260507005043 48 180 0.0 0.9 0.00 0.00 0.00 68 998.1
20260507004540 48 270 0.0 0.0 0.00 0.00 0.00 69 998.2
20260507004112 48 225 0.9 0.9 0.00 0.00 0.00 69 998.2
20260507004039 48 225 0.9 0.9 0.00 0.00 0.00 69 998.2
20260507003536 48 135 0.0 0.0 0.00 0.00 0.00 69 998.2
20260507003034 48 135 0.0 0.0 0.00 0.00 0.00 68 998.4
20260507002030 48 135 0.0 0.9 0.00 0.00 0.00 69 998.3
20260507001527 48 90 0.0 0.9 0.00 0.00 0.00 66 998.3
20260507001025 48 180 0.0 1.7 0.00 0.00 0.00 67 998.4
20260507000523 48 225 0.0 0.9 0.00 0.00 0.00 67 998.3
20260507000055 48 135 0.0 0.9 0.00 0.00 0.00 65 998.3
20260507000022 48 135 0.0 0.9 0.00 0.00 0.00 65 998.3
20260506235518 48 225 0.0 0.9 0.00 0.00 0.00 66 998.3
20260506235017 48 225 0.9 1.7 0.00 0.00 0.00 64 998.2
20260506234514 49 225 0.0 0.9 0.00 0.00 0.00 65 998.3
20260506234046 49 270 0.0 0.9 0.00 0.00 0.00 65 998.3
20260506234012 49 270 0.0 0.9 0.00 0.00 0.00 65 998.3
20260506233509 49 270 0.9 0.9 0.00 0.00 0.00 65 998.3
20260506233009 49 270 0.0 0.0 0.00 0.00 0.00 64 998.4
20260506232505 49 270 0.0 0.9 0.00 0.00 0.00 64 998.3
20260506232003 49 225 0.0 0.0 0.00 0.00 0.00 65 998.3
20260506231501 50 225 0.0 0.0 0.00 0.00 0.00 65 998.4
20260506231047 50 315 0.0 0.9 0.00 0.00 0.00 66 998.4
20260506230959 50 315 0.0 0.9 0.00 0.00 0.00 66 998.4
20260506230456 50 90 0.0 1.7 0.00 0.00 0.00 70 998.4
20260506225955 50 33 0.0 2.6 0.00 0.00 0.00 66 998.4
20260506225452 50 112 1.7 2.6 0.00 0.00 0.00 64 998.5
20260506225022 49 225 0.0 0.0 0.00 0.00 0.00 66 998.4
20260506224950 49 225 0.0 0.0 0.00 0.00 0.00 66 998.4
20260506224448 50 225 0.0 0.0 0.00 0.00 0.00 64 998.4
20260506223946 50 225 0.0 0.0 0.00 0.00 0.00 62 998.7
20260506223518 50 22 0.0 0.9 0.00 0.00 0.00 62 998.5
20260506223443 50 22 0.0 0.9 0.00 0.00 0.00 62 998.5
20260506223014 50 225 0.0 0.9 0.00 0.00 0.00 62 998.5
20260506222942 50 225 0.0 0.9 0.00 0.00 0.00 62 998.5
20260506222439 50 315 0.0 0.0 0.00 0.00 0.00 63 998.6
20260506222018 50 135 0.0 0.9 0.00 0.00 0.00 64 998.6
20260506221937 50 135 0.0 0.9 0.00 0.00 0.00 64 998.6
20260506221435 50 135 0.0 0.9 0.00 0.00 0.00 61 998.5
20260506221018 50 0 0.0 0.0 0.00 0.00 0.00 63 998.7
20260506220933 50 0 0.0 0.0 0.00 0.00 0.00 63 998.7
20260506220430 50 135 0.0 0.0 0.00 0.00 0.00 60 998.7
20260506220030 51 135 0.9 0.9 0.00 0.00 0.00 60 998.7
20260506215929 51 135 0.9 0.9 0.00 0.00 0.00 60 998.7
20260506215426 51 135 0.0 0.9 0.00 0.00 0.00 60 998.8
20260506215013 51 135 0.0 0.0 0.00 0.00 0.00 60 998.7
20260506214924 51 135 0.0 0.0 0.00 0.00 0.00 60 998.7
20260506214422 51 135 0.0 0.9 0.00 0.00 0.00 61 998.8
20260506214004 51 270 0.0 0.9 0.00 0.00 0.00 60 999.0
20260506213920 51 270 0.0 0.9 0.00 0.00 0.00 60 999.0
20260506213451 51 315 0.0 0.9 0.00 0.00 0.00 59 998.9
20260506213417 51 315 0.0 0.9 0.00 0.00 0.00 59 998.9
20260506213012 51 90 0.0 0.9 0.00 0.00 0.00 60 998.8
20260506212916 51 90 0.0 0.9 0.00 0.00 0.00 60 998.8
20260506212451 51 90 0.0 0.9 0.00 0.00 0.00 59 998.9
20260506212413 51 90 0.0 0.9 0.00 0.00 0.00 59 998.9
20260506211952 51 90 0.0 0.9 0.00 0.00 0.00 59 998.8
20260506211911 51 90 0.0 0.9 0.00 0.00 0.00 59 998.8
20260506211408 52 90 0.0 0.0 0.00 0.00 0.00 57 998.8
20260506210943 52 135 0.0 0.9 0.00 0.00 0.00 57 998.7
20260506210907 52 135 0.0 0.9 0.00 0.00 0.00 57 998.7
20260506210509 52 90 0.0 0.0 0.00 0.00 0.00 57 998.8
20260506210404 52 90 0.0 0.0 0.00 0.00 0.00 57 998.8
20260506210001 52 0 0.0 0.0 0.00 0.00 0.00 56 998.7
20260506205903 52 0 0.0 0.0 0.00 0.00 0.00 56 998.7
20260506205400 53 135 0.0 1.7 0.00 0.00 0.00 57 998.7
20260506204939 53 112 0.9 1.7 0.00 0.00 0.00 56 998.6
20260506204858 53 112 0.9 1.7 0.00 0.00 0.00 56 998.6
20260506204440 53 135 1.7 1.7 0.00 0.00 0.00 57 998.5
20260506204355 53 135 1.7 1.7 0.00 0.00 0.00 57 998.5
20260506203947 53 180 0.0 1.7 0.00 0.00 0.00 56 998.6
20260506203854 53 180 0.0 1.7 0.00 0.00 0.00 56 998.6
20260506203351 54 45 0.9 1.7 0.00 0.00 0.00 56 998.6
20260506202950 54 123 1.7 1.7 0.00 0.00 0.00 56 998.5
20260506202849 54 123 1.7 1.7 0.00 0.00 0.00 56 998.5
20260506202347 54 292 0.9 1.7 0.00 0.00 0.00 55 998.4
20260506201924 54 123 0.9 4.3 0.00 0.00 0.00 55 998.3
20260506201845 54 123 0.9 4.3 0.00 0.00 0.00 55 998.3
20260506201414 55 292 1.7 3.5 0.00 0.00 0.00 54 998.5
20260506201342 55 292 1.7 3.5 0.00 0.00 0.00 54 998.5
20260506200927 55 90 1.7 2.6 0.00 0.00 0.00 54 998.3
20260506200841 55 90 1.7 2.6 0.00 0.00 0.00 54 998.3
20260506200339 55 281 0.9 2.6 0.00 0.00 0.00 53 998.3
20260506195836 55 78 1.7 3.5 0.00 0.00 0.00 52 998.3
20260506195334 56 135 2.6 5.2 0.00 0.00 0.00 51 998.1
20260506194904 56 225 1.7 5.2 0.00 0.00 0.00 50 998.2
20260506194832 56 225 1.7 5.2 0.00 0.00 0.00 50 998.2
20260506193828 57 11 0.0 2.6 0.00 0.00 0.00 49 998.0
20260506193325 57 247 1.7 2.6 0.00 0.00 0.00 46 998.1
20260506192902 57 247 0.0 5.2 0.00 0.00 0.00 47 998.0
20260506192823 57 247 0.0 5.2 0.00 0.00 0.00 47 998.0
20260506192321 58 292 6.1 6.1 0.00 0.00 0.00 44 998.1
20260506191819 58 292 5.2 6.1 0.00 0.00 0.00 41 998.0
20260506191421 58 90 1.7 5.2 0.00 0.00 0.00 41 997.9
20260506191316 58 90 1.7 5.2 0.00 0.00 0.00 41 997.9
20260506190815 59 270 1.7 7.8 0.00 0.00 0.00 40 997.9
20260506190312 59 225 3.5 7.8 0.00 0.00 0.00 39 998.0
20260506185855 60 247 2.6 7.8 0.00 0.00 0.00 39 997.8
20260506185810 60 247 2.6 7.8 0.00 0.00 0.00 39 997.8
20260506185342 60 78 1.7 6.1 0.00 0.00 0.00 37 997.7
20260506185308 60 78 1.7 6.1 0.00 0.00 0.00 37 997.7
20260506184806 60 90 2.6 7.0 0.00 0.00 0.00 36 997.5
20260506184354 61 67 7.0 7.8 0.00 0.00 0.00 32 997.7
20260506184303 61 67 7.0 7.8 0.00 0.00 0.00 32 997.7
20260506183834 62 90 0.9 7.0 0.00 0.00 0.00 35 997.4
20260506183802 62 90 0.9 7.0 0.00 0.00 0.00 35 997.4
20260506183333 62 292 0.9 7.0 0.00 0.00 0.00 36 997.5
20260506183259 62 292 0.9 7.0 0.00 0.00 0.00 36 997.5
20260506182843 62 157 2.6 4.3 0.00 0.00 0.00 36 997.4
20260506182757 62 157 2.6 4.3 0.00 0.00 0.00 36 997.4
20260506182255 62 0 2.6 5.2 0.00 0.00 0.00 35 997.5
20260506181330 63 337 3.5 6.1 0.00 0.00 0.00 32 997.4
20260506181250 63 337 3.5 6.1 0.00 0.00 0.00 32 997.4
20260506180749 63 292 1.7 7.8 0.00 0.00 0.00 31 997.4
20260506180246 64 303 3.5 8.7 0.00 0.00 0.00 31 997.4
20260506175822 64 123 1.7 7.0 0.00 0.00 0.00 30 997.5
20260506175744 64 123 1.7 7.0 0.00 0.00 0.00 30 997.5
20260506175241 64 90 4.3 6.1 0.00 0.00 0.00 30 997.3
20260506174740 64 135 2.6 7.0 0.00 0.00 0.00 28 997.7
20260506174329 64 123 1.7 7.0 0.00 0.00 0.00 28 997.8
20260506174237 64 123 1.7 7.0 0.00 0.00 0.00 28 997.8
20260506173735 65 292 2.6 8.7 0.00 0.00 0.00 29 997.6
20260506172731 65 157 2.6 8.7 0.00 0.00 0.00 28 997.5
20260506172228 65 45 2.6 7.0 0.00 0.00 0.00 29 997.6
20260506171727 65 0 6.1 7.0 0.00 0.00 0.00 28 997.7
20260506171302 65 258 2.6 8.7 0.00 0.00 0.00 27 997.6
20260506171224 65 258 2.6 8.7 0.00 0.00 0.00 27 997.6
20260506170722 65 135 2.6 7.8 0.00 0.00 0.00 27 997.5
20260506170220 65 56 4.3 7.0 0.00 0.00 0.00 29 997.6
20260506165749 65 337 7.8 10.4 0.00 0.00 0.00 31 997.6
20260506165718 65 337 7.8 10.4 0.00 0.00 0.00 31 997.6
20260506165215 64 0 6.1 8.7 0.00 0.00 0.00 30 997.6
20260506164714 65 270 3.5 7.0 0.00 0.00 0.00 31 997.7
20260506164211 66 67 3.5 9.6 0.00 0.00 0.00 30 997.8
20260506163745 67 67 5.2 9.6 0.00 0.00 0.00 28 997.5
20260506163709 67 67 5.2 9.6 0.00 0.00 0.00 28 997.5
20260506163207 67 292 3.5 7.8 0.00 0.00 0.00 28 997.5
20260506162705 67 67 2.6 7.8 0.00 0.00 0.00 28 997.6
20260506162202 66 292 6.1 7.0 0.00 0.00 0.00 30 997.6
20260506161701 66 90 2.6 6.1 0.00 0.00 0.00 30 997.6
20260506161158 66 112 2.6 7.8 0.00 0.00 0.00 30 997.7
20260506160727 66 45 2.6 10.4 0.00 0.00 0.00 30 997.7
20260506160656 66 45 2.6 10.4 0.00 0.00 0.00 30 997.7
20260506160154 66 0 1.7 7.8 0.00 0.00 0.00 31 997.6
20260506155723 66 270 2.6 6.1 0.00 0.00 0.00 31 997.6
20260506155652 66 270 2.6 6.1 0.00 0.00 0.00 31 997.6
20260506155149 66 67 6.1 7.8 0.00 0.00 0.00 32 997.8
20260506154720 65 315 4.3 10.4 0.00 0.00 0.00 32 997.7
20260506154648 65 315 4.3 10.4 0.00 0.00 0.00 32 997.7
20260506154223 66 67 5.2 10.4 0.00 0.00 0.00 27 997.8
20260506154145 66 67 5.2 10.4 0.00 0.00 0.00 27 997.8
20260506153643 67 78 1.7 9.6 0.00 0.00 0.00 26 997.7
20260506153140 68 67 6.1 7.8 0.00 0.00 0.00 26 997.7
20260506152711 68 135 6.1 9.6 0.00 0.00 0.00 26 997.7
20260506152639 68 135 6.1 9.6 0.00 0.00 0.00 26 997.7
20260506152136 68 247 1.7 8.7 0.00 0.00 0.00 27 997.8
20260506151634 68 225 3.5 4.3 0.00 0.00 0.00 27 997.8
20260506151222 67 101 7.0 7.0 0.00 0.00 0.00 28 997.9
20260506151132 67 101 7.0 7.0 0.00 0.00 0.00 28 997.9
20260506150630 67 67 2.6 8.7 0.00 0.00 0.00 26 998.1
20260506150127 68 0 3.5 7.0 0.00 0.00 0.00 25 998.0
20260506145626 69 337 4.3 7.8 0.00 0.00 0.00 25 998.2
20260506145123 69 270 5.2 5.2 0.00 0.00 0.00 27 998.2
20260506144621 69 112 6.1 7.0 0.00 0.00 0.00 27 998.3
20260506144119 68 315 6.1 8.7 0.00 0.00 0.00 27 998.3
20260506143617 68 0 3.5 7.8 0.00 0.00 0.00 26 998.5
20260506143114 68 112 4.3 7.0 0.00 0.00 0.00 27 998.5
20260506142653 68 0 7.8 11.3 0.00 0.00 0.00 26 998.5
20260506142613 68 0 7.8 11.3 0.00 0.00 0.00 26 998.5
20260506142110 67 101 2.6 4.3 0.00 0.00 0.00 27 998.6
20260506141608 67 0 7.8 7.8 0.00 0.00 0.00 26 998.7
20260506141106 67 67 6.1 8.7 0.00 0.00 0.00 28 998.8
20260506140636 67 101 2.6 7.8 0.00 0.00 0.00 28 998.8
20260506140604 67 101 2.6 7.8 0.00 0.00 0.00 28 998.8
20260506140206 67 112 1.7 11.3 0.00 0.00 0.00 30 998.8
20260506135631 68 56 7.8 7.8 0.00 0.00 0.00 26 998.8
20260506135600 68 56 7.8 7.8 0.00 0.00 0.00 26 998.8
20260506135128 67 326 1.7 5.2 0.00 0.00 0.00 28 999.0
20260506135057 67 326 1.7 5.2 0.00 0.00 0.00 28 999.0
20260506134643 67 281 6.1 6.1 0.00 0.00 0.00 27 998.8
20260506134555 67 281 6.1 6.1 0.00 0.00 0.00 27 998.8
20260506134053 67 270 0.9 7.8 0.00 0.00 0.00 25 999.0
20260506133623 67 270 2.6 6.1 0.00 0.00 0.00 25 999.0
20260506133551 67 270 2.6 6.1 0.00 0.00 0.00 25 999.0
20260506133048 67 270 2.6 6.1 0.00 0.00 0.00 26 999.0
20260506132620 66 90 0.9 7.8 0.00 0.00 0.00 27 999.2
20260506132547 66 90 0.9 7.8 0.00 0.00 0.00 27 999.2
20260506132117 65 90 2.6 6.1 0.00 0.00 0.00 29 999.2
20260506132044 65 90 2.6 6.1 0.00 0.00 0.00 29 999.2
20260506131625 64 292 0.0 0.0 0.00 0.00 0.00 28 999.3
20260506131542 64 292 0.0 0.0 0.00 0.00 0.00 28 999.3
20260506131114 64 315 0.0 0.0 0.00 0.00 0.00 30 999.3
20260506131039 64 315 0.0 0.0 0.00 0.00 0.00 30 999.3
20260506130538 64 78 0.0 0.0 0.00 0.00 0.00 30 999.5
20260506130117 64 45 0.0 0.0 0.00 0.00 0.00 28 999.5
20260506130035 64 45 0.0 0.0 0.00 0.00 0.00 28 999.5
20260506125621 64 90 0.0 0.0 0.00 0.00 0.00 28 999.7
20260506125534 64 90 0.0 0.0 0.00 0.00 0.00 28 999.7
20260506125114 64 292 0.0 0.0 0.00 0.00 0.00 28 999.6
20260506125031 64 292 0.0 0.0 0.00 0.00 0.00 28 999.6
20260506124617 64 90 0.0 0.0 0.00 0.00 0.00 27 999.8
20260506124529 64 90 0.0 0.0 0.00 0.00 0.00 27 999.8
20260506124112 64 112 0.0 0.0 0.00 0.00 0.00 28 999.8
20260506124026 64 112 0.0 0.0 0.00 0.00 0.00 28 999.8
20260506123525 64 270 0.0 0.0 0.00 0.00 0.00 28 999.6
20260506123022 64 67 0.0 0.0 0.00 0.00 0.00 28 999.9
20260506122554 63 90 2.6 2.6 0.00 0.00 0.00 26 1000.0
20260506122520 63 90 2.6 2.6 0.00 0.00 0.00 26 1000.0
20260506122115 63 90 0.0 0.0 0.00 0.00 0.00 27 999.8
20260506122018 63 90 0.0 0.0 0.00 0.00 0.00 27 999.8
20260506121602 64 67 0.0 0.0 0.00 0.00 0.00 28 999.9
20260506121516 64 67 0.0 0.0 0.00 0.00 0.00 28 999.9
20260506121117 64 90 0.0 0.0 0.00 0.00 0.00 29 1000.0
20260506121014 64 90 0.0 0.0 0.00 0.00 0.00 29 1000.0
20260506120512 64 90 0.0 0.0 0.00 0.00 0.00 28 1000.0
20260506120124 63 45 0.0 0.0 0.00 0.00 0.00 30 1000.0
20260506120009 63 45 0.0 0.0 0.00 0.00 0.00 30 1000.0
20260506115507 63 0 0.0 0.0 0.00 0.00 0.00 30 1000.0
20260506115044 64 67 0.0 0.0 0.00 0.00 0.00 28 1000.3
20260506115005 64 67 0.0 0.0 0.00 0.00 0.00 28 1000.3
20260506114543 64 90 0.0 0.9 0.00 0.00 0.00 30 1000.3
20260506114503 64 90 0.0 0.9 0.00 0.00 0.00 30 1000.3
20260506114001 64 135 0.0 7.8 0.00 0.00 0.00 30 1000.3
20260506113459 64 45 3.5 3.5 0.00 0.00 0.00 32 1000.4
20260506113028 63 45 0.0 3.5 0.00 0.00 0.00 32 1000.3
20260506112956 63 45 0.0 3.5 0.00 0.00 0.00 32 1000.3
20260506112530 63 101 0.0 0.0 0.00 0.00 0.00 33 1000.5
20260506112454 63 101 0.0 0.0 0.00 0.00 0.00 33 1000.5
20260506112024 63 56 0.0 0.0 0.00 0.00 0.00 33 1000.5
20260506111952 63 56 0.0 0.0 0.00 0.00 0.00 33 1000.5
20260506111540 63 45 0.0 0.9 0.00 0.00 0.00 34 1000.5
20260506111450 63 45 0.0 0.9 0.00 0.00 0.00 34 1000.5
20260506110948 63 45 0.0 0.9 0.00 0.00 0.00 36 1000.5
20260506110523 62 45 0.0 0.9 0.00 0.00 0.00 35 1000.4
20260506110446 62 45 0.0 0.9 0.00 0.00 0.00 35 1000.4
20260506105943 62 90 0.0 7.0 0.00 0.00 0.00 35 1000.7
20260506105441 63 67 1.7 8.7 0.00 0.00 0.00 35 1000.6
20260506103934 62 56 0.0 0.0 0.00 0.00 0.00 38 1000.8
20260506103432 62 270 0.0 0.0 0.00 0.00 0.00 40 1000.7
20260506103009 61 67 0.0 0.0 0.00 0.00 0.00 40 1000.8
20260506102930 61 67 0.0 0.0 0.00 0.00 0.00 40 1000.8
20260506102428 61 78 0.0 0.0 0.00 0.00 0.00 41 1000.7
20260506101959 61 45 0.0 0.0 0.00 0.00 0.00 40 1000.9
20260506101925 61 45 0.0 0.0 0.00 0.00 0.00 40 1000.9
20260506101527 61 90 0.0 0.0 0.00 0.00 0.00 42 1000.9
20260506101425 61 90 0.0 0.0 0.00 0.00 0.00 42 1000.9
20260506100921 60 67 0.0 0.0 0.00 0.00 0.00 44 1000.9
20260506100452 60 270 0.0 0.0 0.00 0.00 0.00 44 1001.0
20260506100420 60 270 0.0 0.0 0.00 0.00 0.00 44 1001.0
20260506100026 60 45 0.0 0.0 0.00 0.00 0.00 45 1000.9
20260506095917 60 45 0.0 0.0 0.00 0.00 0.00 45 1000.9
20260506095453 60 67 0.0 0.0 0.00 0.00 0.00 47 1001.0
20260506095415 60 67 0.0 0.0 0.00 0.00 0.00 47 1001.0
20260506094943 59 90 0.0 0.0 0.00 0.00 0.00 46 1000.9
20260506094912 59 90 0.0 0.0 0.00 0.00 0.00 46 1000.9
20260506094509 59 135 0.0 0.0 0.00 0.00 0.00 50 1001.1
20260506094411 59 135 0.0 0.0 0.00 0.00 0.00 50 1001.1
20260506093944 59 0 0.0 0.0 0.00 0.00 0.00 51 1000.9
20260506093908 59 0 0.0 0.0 0.00 0.00 0.00 51 1000.9
20260506093406 59 56 0.0 0.0 0.00 0.00 0.00 53 1001.1
20260506092904 59 90 0.0 0.0 0.00 0.00 0.00 53 1001.0
20260506092434 59 90 0.0 0.0 0.00 0.00 0.00 54 1001.1
20260506092403 59 90 0.0 0.0 0.00 0.00 0.00 54 1001.1
20260506091859 58 0 0.0 0.0 0.00 0.00 0.00 56 1001.2
20260506091459 58 135 0.0 0.0 0.00 0.00 0.00 56 1001.4
20260506091358 58 135 0.0 0.0 0.00 0.00 0.00 56 1001.4
20260506090855 58 157 0.0 0.0 0.00 0.00 0.00 59 1001.1
20260506090353 57 146 0.0 0.0 0.00 0.00 0.00 59 1001.2
20260506085851 57 56 0.0 0.0 0.00 0.00 0.00 58 1001.2
20260506085349 57 135 0.0 0.0 0.00 0.00 0.00 59 1001.0
20260506084846 57 45 0.0 0.0 0.00 0.00 0.00 59 1001.2
20260506084430 56 90 0.0 0.0 0.00 0.00 0.00 59 1001.4
20260506084345 56 90 0.0 0.0 0.00 0.00 0.00 59 1001.4
20260506083842 56 22 0.0 2.6 0.00 0.00 0.00 59 1001.3
20260506083341 56 56 0.0 0.0 0.00 0.00 0.00 60 1001.4
20260506082924 56 45 0.0 0.0 0.00 0.00 0.00 59 1001.2
20260506082838 56 45 0.0 0.0 0.00 0.00 0.00 59 1001.2
20260506082336 56 90 0.0 0.0 0.00 0.00 0.00 62 1001.4
20260506081952 55 90 0.0 0.0 0.00 0.00 0.00 62 1001.4
20260506081449 55 225 0.0 5.2 0.00 0.00 0.00 62 1001.6
20260506081022 55 56 0.0 0.0 0.00 0.00 0.00 62 1001.5
20260506080949 55 56 0.0 0.0 0.00 0.00 0.00 62 1001.5
20260506080445 55 101 0.0 0.0 0.00 0.00 0.00 62 1001.5
20260506073433 55 22 0.0 0.0 0.00 0.00 0.00 62 1001.3
20260506072930 55 78 0.0 0.0 0.00 0.00 0.00 62 1001.5
20260506072002 57 78 0.0 0.0 0.00 0.00 0.00 59 1001.5
20260506071926 57 78 0.0 0.0 0.00 0.00 0.00 59 1001.5
20260506071516 58 90 0.0 0.0 0.00 0.00 0.00 66 1001.5
20260506071424 58 90 0.0 0.0 0.00 0.00 0.00 66 1001.5
20260506070921 57 135 0.0 0.0 0.00 0.00 0.00 67 1001.6
20260506070418 56 180 0.0 0.0 0.00 0.00 0.00 68 1001.6
20260506062402 49 180 0.0 0.9 0.00 0.00 0.00 78 1001.6
20260506061933 48 180 0.0 0.9 0.00 0.00 0.00 78 1001.4
20260506061859 48 180 0.0 0.9 0.00 0.00 0.00 78 1001.4
20260506061432 47 90 0.0 0.0 0.00 0.00 0.00 80 1001.5
20260506061357 47 90 0.0 0.0 0.00 0.00 0.00 80 1001.5
20260506060936 46 90 0.0 0.0 0.00 0.00 0.00 80 1001.4
20260506060855 46 90 0.0 0.0 0.00 0.00 0.00 80 1001.4
20260506060352 45 180 0.0 0.9 0.00 0.00 0.00 80 1001.4